METEOR 2-7 DEB

Satellite information

Favourite Embed

Satellite Type and Status

DEBRISIN ORBIT

Key statistics

Satellite METEOR 2-7 DEB at a glance.

Uptime

16183

Days in orbit

Revolutions

≈ 14.6

Per day

Orbit

LEO

Low Earth Orbit

Inclination

81.3

Latest

Satellite identification and parameters

Extended collection of information and parameters for METEOR 2-7 DEB.

Object identification

Identified? True

Debris? True

Object name: METEOR 2-7 DEB

International designator: 1981-043F

Object number (NORAD): 28389

Object ID (CCSDS): 28389

Country: COMMONWEALTH OF INDEPENDENT STATES (CIS)

Current information (Y/N): Y

RCS size: SMALL

Orbital parameters

Period: 98.908 minutes

Inclination: 81.262 deg

SMA: 7084.577 km

Apoapsis: 726.14 km

Periapsis: 686.743 km

RAAN: 220.9034 deg

Eccentricy: 0.00278047

Argument of periapsis: 141.0252 deg

Mean anomaly: 219.2956 deg

Mean motion: 14.55901209 rev/day

Mean motion (dot): 0.00032921 rev/day2

B* drag term: 0.0074272215 1/REarth

Two-line elements (TLE)

Creation date: Sept. 2, 2025, 11:42 p.m.

Reference frame: TEME

Reference center: EARTH

Epoch: Sept. 2, 2025, 8:40 a.m. UTC

TLE line 0: 0 METEOR 2-7 DEB

TLE line 1: 1 28389U 81043F 25245.36144134 .00032921 00000-0 74272-2 0 9991

TLE line 2: 2 28389 81.2620 220.9034 0027805 141.0252 219.2956 14.55901209 86024

Live tracking on map

Real-time ground track for satellite METEOR 2-7 DEB.

In-orbit conjunctions

A list of the most updated potential collisions computed for object METEOR 2-7 DEB.

Target Orbit TCA Probability of collision Miss distance Type
MONITOR-E/SL-19 SSO 2025-08-26 18:56:34 0.0009943243 493.0 (m) PAYLOAD
CZ-4 DEB SSO 2025-05-22 15:29:47 0.0006840491 27.0 (m) DEBRIS
CZ-4B R/B SSO 2024-11-08 08:07:15 0.0001229936 434.0 (m) ROCKET BODY

Associated space launch

Second generation soviet meteorological satellite

METEOR 2-7 DEB was lifted into orbit during the mission ‘Vostok 8A92M | Meteor-2 7’, on board a Vostok 8A92M space rocket.

The launch took place on May 14, 1981, 9:45 p.m. from 43/3 (43L).

For more information about the launch, click the button.

Launch to space Vostok 8A92M | Meteor-2 7
Vostok 8A92M | Meteor-2 7

Agency: N/A

Status: Launch Successful

Launch date: May 14, 1981, 9:45 p.m. UTC

Rocket: Vostok 8A92M

Launch pad: 43/3 (43L)

Location: Plesetsk Cosmodrome, Russian Federation

...

Latest news about this satellite

There are no fresh news available about this satellite. Check back as we update our databases every day.


Newsletter sign-up

Weekly statistics, charts and insights to help you stay on top of the space industry.